Tracking 18980 objects as of 18-Feb-2018
HD Live streaming from Space Station
objects crossing your sky now

NOAA 16 DEB

Track NOAA 16 DEB now!
10-day predictions


NORAD ID: 41045
Int'l Code: 2000-055C
Perigee: 842.8 km
Apogee: 861.9 km
Inclination: 98.8 °
Period: 101.8 minutes
Semi major axis: 7223 km
RCS: Unknown
Launch date: September 21, 2000
Source: United States (US)
Launch site: AIR FORCE WESTERN TEST RANGE (AFWTR)

Note: This is SATELLITE DEBRIS
aabbcc
Your satellite tracking list
Your tracking list is empty




NASA's NSSDC Master Catalog

Two Line Element Set (TLE):
1 41045U 00055C   18049.12524911 -.00000034  00000-0  50166-5 0  9992
2 41045  98.7997 122.8145 0013234 348.8132  11.2744 14.14136508115290
Source of the keplerian elements: AFSPC